Location: Krakow
(50.0830°N, 19.9170°E)
Time: 09:43:25
(UTC+01:00)

Transit 2A - Pass Details

Date: 15 February 2023
Orbit: 591 x 964 km, 66.7° (Epoch: 21 March)

Event Time Altitude Azimuth Distance (km) Brightness Sun altitude
Rises 13:55:09 0° 203° (SSW) 3,040 10.6 21.9°
Reaches altitude 10° 13:57:23 10° 200° (SSW) 2,180 10.2 21.7°
Maximum altitude 14:02:17 62° 120° (ESE) 861 6.6 21.3°
Drops below altitude 10° 14:07:49 10° 41° (NE) 2,445 8.1 20.8°
Sets 14:10:25 0° 39° (NE) 3,442 8.8 20.6°
